STARLINK-1726, 46362

Orbit data source: Space-Track

STARLINK-1726, 46362 is a payload satellite owned by SpaceX/Seattle (US) in LEO that was launched on Thu, 03 Sep 2020 UTC via an FALCON 9 launch vehicle from the Air Force Eastern Test Range (AFETR). Payload-class satellites include a variety of spacecraft equipped with specific instruments for various scientific and technological missions. These include communications satellites like Starlink; space stations such as the ISS; scientific satellites like the Hubble; Earth observation satellites from companies like Planet Labs, Umbra, and HawkEye 360; GPS; miniature CubeSats for education and research; and military/defense satellites.

Loading next visibility...
Identifier
46362, 2020-062AP
Orbit
LEO
Last TLE update
4 hours ago
Origin
Manufacturer
SpaceX/Seattle
Mission
Operational Commercial Communications
Bus & Motor
STARLINK, Unknown motor
Mass
260 kg wet, ~248 kg dry
Launch date (UTC)
2020-09-03 (5 years ago)
Launch vehicle
FALCON 9
Launch site
Air Force Eastern Test Range (AFETR)
Object type
Payload
Rocket body
Debris
Shape & HBR
Box + 1 Pan, 8.86 m
Radar Cross Section
13.562 m², Large (>1 m²)

Expand to show TLE details & history

TLE from 4 hours ago
0 STARLINK-1726
1 46362U 20062AP  25182.25002315  .01763270  00000-0  82486-1 0  9992
2 46362  53.0555  20.1563 0001660  57.2407  16.2017 15.16084157267225
Epoch: 2025-07-01T06:00Z
TLE epoch observation values (Epoch: 2025-07-01T06:00:02Z)
Latitude
50.15354°
Longitude
74.2603°
Altitude
522.441 km
Speed
7.609 km/s
True Right ascension
05h 35m 16s
True Declination
49° 58' 43"
Sunlit
Object was in daylight at epoch
Visualization orbit readout
Latitude
11.19484°
Longitude
18.25976°
Altitude
515.051 km
Speed
7.609 km/s
Apparent Right ascension
04h 52m 23s
Apparent Declination
-25° 38' 19"
Sunlit
Object is in daylight
Visualization observer readout
Local Sidereal Time
22:07:34
Azimuth
103.937° ESE
Elevation
-24.33°
Doppler factor
1
Orbital elements
Apogee altitude
519.106 km
Perigee altitude
516.816 km
Semi-major axis
6,896.098 km
Eccentricity
0.00017
Inclination
53.0555°
RAAN
20.1563°
Arg. of periapsis
57.2407°
True anomaly
Unknown
Mean anomaly
16.2017°
Eccentric anomaly
Unknown
Mean motion
3.78999 °/min
Orbital period
94.99 mins
BSTAR
0.082486
Loading maneuver chart data...
Loading SW <> Apogee altitude chart data...
Loading historical data...
Loading historical data...
Loading historical data...
Loading historical data...
Loading historical data...
Loading historical data...
Loading historical data...

STARLINK-1726 Visibility forecast

Observer location: undefined°, undefined°

Span
Click to sort rows by Start time (UTC) header in descending order
Start Az.
Max El. time (UTC)
Max El. Az.
Max El.
End time (UTC)
End Az.
6 mins2025-07-01 15:19:06.788Z194.803° SSW2025-07-01 15:22:06.788Z140.194° SSE28.27°2025-07-01 15:25:06.788Z73.288° E
5 mins2025-07-01 16:59:06.788Z276.88° WNW2025-07-01 17:01:06.788Z330.159° NNW29.836°2025-07-01 17:04:06.788Z32.529° NE
5 mins2025-07-01 21:58:06.788Z333.296° NNW2025-07-01 22:00:06.788Z16.632° NNE29.429°2025-07-01 22:03:06.788Z91.27° ESE
5 mins2025-07-01 23:37:06.788Z278.512° WNW2025-07-01 23:39:06.788Z229.97° WSW28.057°2025-07-01 23:42:06.788Z167.971° S
|